Time,TemperatureF,DewpointF,PressureIn,WindDirection,WindDirectionDegrees,WindSpeedMPH,WindSpeedGustMPH,Humidity,HourlyPrecipIn,Conditions,Clouds,dailyrainin,SolarRadiationWatts/m^2,SoftwareType,DateUTC
2013-04-10 00:00:00,75.2,53.0,29.98,West,271,6.0,8.0,46,0.00,,,0.00,0,Wunderground v.1.15,2013-04-10 04:00:00,
2013-04-10 00:05:00,75.1,53.5,29.99,WSW,239,6.0,8.0,47,0.00,,,0.00,0,Wunderground v.1.15,2013-04-10 04:05:00,
2013-04-10 00:10:00,74.9,53.3,29.99,SW,230,6.0,10.0,47,0.00,,,0.00,0,Wunderground v.1.15,2013-04-10 04:10:00,
2013-04-10 00:20:00,74.4,53.4,29.98,West,262,6.0,8.0,48,0.00,,,0.00,0,Wunderground v.1.15,2013-04-10 04:20:00,
2013-04-10 00:25:00,74.3,53.3,29.98,West,266,6.0,8.0,48,0.00,,,0.00,0,Wunderground v.1.15,2013-04-10 04:25:00,
2013-04-10 00:30:00,74.0,53.1,29.98,West,267,6.0,6.0,48,0.00,,,0.00,0,Wunderground v.1.15,2013-04-10 04:30:00,
2013-04-10 00:35:00,73.9,53.0,29.98,West,274,6.0,8.0,48,0.00,,,0.00,0,Wunderground v.1.15,2013-04-10 04:35:00,
2013-04-10 00:45:00,73.6,53.3,29.98,West,271,6.0,10.0,49,0.00,,,0.00,0,Wunderground v.1.15,2013-04-10 04:45:00,
2013-04-10 00:50:00,73.4,53.1,29.98,WNW,296,6.0,6.0,49,0.00,,,0.00,0,Wunderground v.1.15,2013-04-10 04:50:00,
2013-04-10 00:55:00,73.4,53.6,29.98,West,266,6.0,8.0,50,0.00,,,0.00,0,Wunderground v.1.15,2013-04-10 04:55:00,
2013-04-10 01:00:00,73.4,53.6,29.98,West,277,6.0,6.0,50,0.00,,,0.00,0,Wunderground v.1.15,2013-04-10 05:00:00,
2013-04-10 01:05:00,73.2,53.4,29.98,WSW,254,6.0,8.0,50,0.00,,,0.00,0,Wunderground v.1.15,2013-04-10 05:05:00,
2013-04-10 01:10:00,73.2,53.4,29.98,West,279,5.0,8.0,50,0.00,,,0.00,0,Wunderground v.1.15,2013-04-10 05:10:00,
2013-04-10 01:15:00,73.0,53.3,29.98,West,275,5.0,8.0,50,0.00,,,0.00,0,Wunderground v.1.15,2013-04-10 05:15:00,
2013-04-10 01:25:00,72.7,53.5,29.98,WNW,286,6.0,8.0,51,0.00,,,0.00,0,Wunderground v.1.15,2013-04-10 05:25:00,
2013-04-10 01:30:00,72.7,53.5,29.98,NW,311,6.0,8.0,51,0.00,,,0.00,0,Wunderground v.1.15,2013-04-10 05:30:00,
2013-04-10 01:35:00,72.7,53.5,29.98,NNW,327,6.0,8.0,51,0.00,,,0.00,0,Wunderground v.1.15,2013-04-10 05:35:00,
2013-04-10 01:40:00,72.6,53.4,29.98,West,263,5.0,5.0,51,0.00,,,0.00,0,Wunderground v.1.15,2013-04-10 05:40:00,
2013-04-10 01:45:00,72.5,53.9,29.98,WNW,282,4.0,8.0,52,0.00,,,0.00,0,Wunderground v.1.15,2013-04-10 05:45:00,
2013-04-10 01:55:00,72.2,53.6,29.99,WNW,287,3.0,8.0,52,0.00,,,0.00,0,Wunderground v.1.15,2013-04-10 05:55:00,
2013-04-10 02:00:00,72.0,53.9,29.99,WNW,287,2.0,8.0,53,0.00,,,0.00,0,Wunderground v.1.15,2013-04-10 06:00:00,
2013-04-10 02:05:00,71.7,53.7,29.98,WNW,287,1.0,8.0,53,0.00,,,0.00,0,Wunderground v.1.15,2013-04-10 06:05:00,
2013-04-10 02:10:00,71.3,53.3,29.98,WNW,287,2.0,8.0,53,0.00,,,0.00,0,Wunderground v.1.15,2013-04-10 06:10:00,
2013-04-10 02:15:00,71.0,53.5,29.98,WNW,287,2.0,8.0,54,0.00,,,0.00,0,Wunderground v.1.15,2013-04-10 06:15:00,
2013-04-10 02:20:00,70.6,53.6,29.98,WNW,288,2.0,8.0,55,0.00,,,0.00,0,Wunderground v.1.15,2013-04-10 06:20:00,
2013-04-10 02:30:00,70.2,53.8,29.98,West,281,2.0,8.0,56,0.00,,,0.00,0,Wunderground v.1.15,2013-04-10 06:30:00,
2013-04-10 02:35:00,70.1,53.7,29.98,West,277,2.0,8.0,56,0.00,,,0.00,0,Wunderground v.1.15,2013-04-10 06:35:00,
2013-04-10 02:45:00,70.1,54.2,29.98,West,271,3.0,8.0,57,0.00,,,0.00,0,Wunderground v.1.15,2013-04-10 06:45:00,
2013-04-10 02:50:00,70.1,54.2,29.98,WNW,286,3.0,8.0,57,0.00,,,0.00,0,Wunderground v.1.15,2013-04-10 06:50:00,
2013-04-10 03:00:00,70.2,53.8,29.98,WNW,299,2.0,8.0,56,0.00,,,0.00,0,Wunderground v.1.15,2013-04-10 07:00:00,
2013-04-10 03:05:00,70.2,53.8,29.98,WNW,289,2.0,8.0,56,0.00,,,0.00,0,Wunderground v.1.15,2013-04-10 07:05:00,
2013-04-10 03:10:00,70.1,54.2,29.98,WNW,289,2.0,2.0,57,0.00,,,0.00,0,Wunderground v.1.15,2013-04-10 07:10:00,
2013-04-10 03:15:00,69.9,54.0,29.98,WNW,289,1.0,8.0,57,0.00,,,0.00,0,Wunderground v.1.15,2013-04-10 07:15:00,
2013-04-10 03:20:00,69.7,53.8,29.98,WNW,289,1.0,8.0,57,0.00,,,0.00,0,Wunderground v.1.15,2013-04-10 07:20:00,
2013-04-10 03:30:00,69.6,54.2,29.98,NW,314,2.0,2.0,58,0.00,,,0.00,0,Wunderground v.1.15,2013-04-10 07:30:00,
2013-04-10 03:35:00,69.5,54.1,29.98,NW,314,1.0,8.0,58,0.00,,,0.00,0,Wunderground v.1.15,2013-04-10 07:35:00,
2013-04-10 03:40:00,69.5,54.1,29.98,NW,314,1.0,1.0,58,0.00,,,0.00,0,Wunderground v.1.15,2013-04-10 07:40:00,
2013-04-10 03:45:00,69.2,53.8,29.98,NW,314,0.0,8.0,58,0.00,,,0.00,0,Wunderground v.1.15,2013-04-10 07:45:00,
2013-04-10 03:50:00,68.9,54.0,29.98,NW,314,1.0,8.0,59,0.00,,,0.00,0,Wunderground v.1.15,2013-04-10 07:50:00,
2013-04-10 03:55:00,68.1,54.1,29.98,NW,314,1.0,8.0,61,0.00,,,0.00,0,Wunderground v.1.15,2013-04-10 07:55:00,
2013-04-10 04:05:00,66.9,53.9,29.98,NW,314,1.0,2.0,63,0.00,,,0.00,0,Wunderground v.1.15,2013-04-10 08:05:00,
2013-04-10 04:10:00,66.9,53.9,29.98,WNW,295,1.0,8.0,63,0.00,,,0.00,0,Wunderground v.1.15,2013-04-10 08:10:00,
2013-04-10 04:15:00,66.9,54.3,29.98,West,275,2.0,8.0,64,0.00,,,0.00,0,Wunderground v.1.15,2013-04-10 08:15:00,
2013-04-10 04:20:00,67.0,54.0,29.98,West,269,2.0,8.0,63,0.00,,,0.00,0,Wunderground v.1.15,2013-04-10 08:20:00,
2013-04-10 04:30:00,67.5,54.5,29.98,WSW,248,3.0,8.0,63,0.00,,,0.00,0,Wunderground v.1.15,2013-04-10 08:30:00,
2013-04-10 04:35:00,67.6,54.6,29.98,WSW,249,3.0,8.0,63,0.00,,,0.00,0,Wunderground v.1.15,2013-04-10 08:35:00,
2013-04-10 04:40:00,67.6,54.6,29.99,WNW,288,2.0,2.0,63,0.00,,,0.00,0,Wunderground v.1.15,2013-04-10 08:40:00,
2013-04-10 04:50:00,67.4,54.4,29.99,West,279,1.0,8.0,63,0.00,,,0.00,0,Wunderground v.1.15,2013-04-10 08:50:00,
2013-04-10 04:55:00,67.4,54.4,29.99,WNW,287,1.0,8.0,63,0.00,,,0.00,0,Wunderground v.1.15,2013-04-10 08:55:00,
2013-04-10 05:05:00,67.5,54.5,29.99,WNW,286,1.0,8.0,63,0.00,,,0.00,0,Wunderground v.1.15,2013-04-10 09:05:00,
2013-04-10 05:15:00,67.2,54.2,29.99,WNW,286,0.0,8.0,63,0.00,,,0.00,0,Wunderground v.1.15,2013-04-10 09:15:00,
2013-04-10 05:20:00,67.2,54.6,29.99,WNW,284,1.0,1.0,64,0.00,,,0.00,0,Wunderground v.1.15,2013-04-10 09:20:00,
2013-04-10 05:30:00,67.2,54.6,29.99,WNW,292,1.0,1.0,64,0.00,,,0.00,0,Wunderground v.1.15,2013-04-10 09:30:00,
2013-04-10 05:40:00,67.2,54.6,29.99,WNW,288,0.0,8.0,64,0.00,,,0.00,0,Wunderground v.1.15,2013-04-10 09:40:00,
2013-04-10 05:50:00,66.9,54.7,29.99,SW,215,0.0,8.0,65,0.00,,,0.00,0,Wunderground v.1.15,2013-04-10 09:50:00,
2013-04-10 05:55:00,66.8,54.7,29.99,SW,215,0.0,8.0,65,0.00,,,0.00,0,Wunderground v.1.15,2013-04-10 09:55:00,
2013-04-10 06:00:00,66.8,54.7,29.99,SW,215,0.0,8.0,65,0.00,,,0.00,0,Wunderground v.1.15,2013-04-10 10:00:00,
2013-04-10 06:06:00,66.8,55.1,29.99,SW,215,0.0,8.0,66,0.00,,,0.00,0,Wunderground v.1.15,2013-04-10 10:06:00,
2013-04-10 06:15:00,66.6,54.9,29.99,SW,215,1.0,8.0,66,0.00,,,0.00,0,Wunderground v.1.15,2013-04-10 10:15:00,
2013-04-10 06:20:00,66.5,54.8,30.00,SW,215,1.0,8.0,66,0.00,,,0.00,0,Wunderground v.1.15,2013-04-10 10:20:00,
2013-04-10 06:25:00,66.5,54.8,30.00,SSW,200,1.0,8.0,66,0.00,,,0.00,0,Wunderground v.1.15,2013-04-10 10:25:00,
2013-04-10 06:31:00,66.8,54.7,30.00,SSW,200,1.0,8.0,65,0.00,,,0.00,0,Wunderground v.1.15,2013-04-10 10:31:00,
2013-04-10 06:40:00,67.1,54.9,30.00,SSW,200,1.0,8.0,65,0.00,,,0.00,0,Wunderground v.1.15,2013-04-10 10:40:00,
2013-04-10 06:45:00,66.9,54.7,30.00,SSW,202,1.0,8.0,65,0.00,,,0.00,0,Wunderground v.1.15,2013-04-10 10:45:00,
2013-04-10 06:50:00,66.9,54.7,30.01,SSW,202,1.0,1.0,65,0.00,,,0.00,5,Wunderground v.1.15,2013-04-10 10:50:00,
2013-04-10 06:55:00,67.0,54.4,30.01,SSW,202,0.0,8.0,64,0.00,,,0.00,7,Wunderground v.1.15,2013-04-10 10:55:00,
2013-04-10 07:00:00,67.4,54.8,30.01,WNW,297,1.0,8.0,64,0.00,,,0.00,11,Wunderground v.1.15,2013-04-10 11:00:00,
2013-04-10 07:10:00,68.2,54.7,30.01,WNW,285,2.0,2.0,62,0.00,,,0.00,19,Wunderground v.1.15,2013-04-10 11:10:00,
2013-04-10 07:15:00,68.8,54.3,30.01,West,275,1.0,8.0,60,0.00,,,0.00,25,Wunderground v.1.15,2013-04-10 11:15:00,
2013-04-10 07:26:00,69.2,54.7,30.02,WNW,297,0.0,8.0,60,0.00,,,0.00,40,Wunderground v.1.15,2013-04-10 11:26:00,
2013-04-10 07:31:00,69.4,54.4,30.02,WNW,296,0.0,8.0,59,0.00,,,0.00,60,Wunderground v.1.15,2013-04-10 11:31:00,
2013-04-10 07:41:00,69.9,55.4,30.02,SSW,212,1.0,8.0,60,0.00,,,0.00,127,Wunderground v.1.15,2013-04-10 11:41:00,
2013-04-10 07:46:00,69.3,55.7,30.02,SSW,206,1.0,8.0,62,0.00,,,0.00,120,Wunderground v.1.15,2013-04-10 11:46:00,
2013-04-10 07:51:00,69.0,55.4,30.02,SSW,206,1.0,1.0,62,0.00,,,0.00,172,Wunderground v.1.15,2013-04-10 11:51:00,
2013-04-10 07:56:00,69.0,55.0,30.02,SSW,206,0.0,8.0,61,0.00,,,0.00,118,Wunderground v.1.15,2013-04-10 11:56:00,
2013-04-10 08:01:00,69.3,55.7,30.02,SSW,206,0.0,8.0,62,0.00,,,0.00,218,Wunderground v.1.15,2013-04-10 12:01:00,
2013-04-10 08:06:00,69.6,55.6,30.02,SSW,206,0.0,8.0,61,0.00,,,0.00,237,Wunderground v.1.15,2013-04-10 12:06:00,
2013-04-10 08:15:00,70.6,55.1,30.02,West,261,1.0,8.0,58,0.00,,,0.00,264,Wunderground v.1.15,2013-04-10 12:15:00,
2013-04-10 08:20:00,71.9,54.9,30.02,NW,305,2.0,8.0,55,0.00,,,0.00,279,Wunderground v.1.15,2013-04-10 12:20:00,
2013-04-10 08:25:00,73.3,56.2,30.02,WNW,302,2.0,8.0,55,0.00,,,0.00,306,Wunderground v.1.15,2013-04-10 12:25:00,
2013-04-10 08:30:00,74.2,56.0,30.02,NW,309,2.0,2.0,53,0.00,,,0.00,327,Wunderground v.1.15,2013-04-10 12:30:00,
2013-04-10 08:35:00,75.1,55.7,30.02,WNW,301,2.0,8.0,51,0.00,,,0.00,297,Wunderground v.1.15,2013-04-10 12:35:00,
2013-04-10 08:45:00,75.7,57.4,30.02,SSW,206,1.0,8.0,53,0.00,,,0.00,410,Wunderground v.1.15,2013-04-10 12:45:00,
2013-04-10 08:50:00,75.6,57.3,30.03,SSW,192,1.0,1.0,53,0.00,,,0.00,316,Wunderground v.1.15,2013-04-10 12:50:00,
2013-04-10 09:00:00,76.4,56.9,30.03,SSW,203,1.0,8.0,51,0.00,,,0.00,464,Wunderground v.1.15,2013-04-10 13:00:00,
2013-04-10 09:06:00,76.9,56.3,30.03,WSW,240,1.0,8.0,49,0.00,,,0.00,413,Wunderground v.1.15,2013-04-10 13:06:00,
2013-04-10 09:16:00,77.4,56.2,30.03,SSW,202,2.0,8.0,48,0.00,,,0.00,216,Wunderground v.1.15,2013-04-10 13:16:00,
2013-04-10 09:26:00,77.9,56.0,30.03,SW,219,1.0,8.0,47,0.00,,,0.00,264,Wunderground v.1.15,2013-04-10 13:26:00,
2013-04-10 09:36:00,78.3,56.4,30.02,SSW,208,2.0,8.0,47,0.00,,,0.00,550,Wunderground v.1.15,2013-04-10 13:36:00,
2013-04-10 09:41:00,78.6,56.1,30.02,SSW,205,2.0,8.0,46,0.00,,,0.00,304,Wunderground v.1.15,2013-04-10 13:41:00,
2013-04-10 09:51:00,78.9,58.1,30.02,SSE,151,2.0,8.0,49,0.00,,,0.00,585,Wunderground v.1.15,2013-04-10 13:51:00,
2013-04-10 09:56:00,79.4,57.4,30.02,SW,214,2.0,8.0,47,0.00,,,0.00,679,Wunderground v.1.15,2013-04-10 13:56:00,
2013-04-10 10:01:00,79.7,57.1,30.02,South,190,3.0,9.0,46,0.00,,,0.00,385,Wunderground v.1.15,2013-04-10 14:01:00,
2013-04-10 10:06:00,79.7,58.3,30.02,SSW,204,4.0,9.0,48,0.00,,,0.00,251,Wunderground v.1.15,2013-04-10 14:06:00,
2013-04-10 10:11:00,80.0,56.7,30.02,West,261,3.0,3.0,45,0.00,,,0.00,225,Wunderground v.1.15,2013-04-10 14:11:00,
2013-04-10 10:16:00,80.2,55.7,30.02,WSW,257,4.0,7.0,43,0.00,,,0.00,292,Wunderground v.1.15,2013-04-10 14:16:00,
2013-04-10 10:21:00,80.4,55.9,30.02,NNW,331,6.0,6.0,43,0.00,,,0.00,782,Wunderground v.1.15,2013-04-10 14:21:00,
2013-04-10 10:31:00,81.3,56.0,30.01,NW,310,5.0,8.0,42,0.00,,,0.00,759,Wunderground v.1.15,2013-04-10 14:31:00,
2013-04-10 10:36:00,81.7,55.7,30.01,West,280,6.0,10.0,41,0.00,,,0.00,798,Wunderground v.1.15,2013-04-10 14:36:00,
2013-04-10 10:41:00,81.6,56.3,30.01,West,279,7.0,7.0,42,0.00,,,0.00,763,Wunderground v.1.15,2013-04-10 14:41:00,
2013-04-10 10:46:00,81.8,56.5,30.01,West,276,6.0,9.0,42,0.00,,,0.00,812,Wunderground v.1.15,2013-04-10 14:46:00,
2013-04-10 10:56:00,82.0,56.0,30.01,NW,304,6.0,6.0,41,0.00,,,0.00,772,Wunderground v.1.15,2013-04-10 14:56:00,
2013-04-10 11:01:00,82.4,56.3,30.01,NW,311,5.0,5.0,41,0.00,,,0.00,805,Wunderground v.1.15,2013-04-10 15:01:00,
2013-04-10 11:06:00,82.6,56.5,30.01,SW,236,5.0,6.0,41,0.00,,,0.00,823,Wunderground v.1.15,2013-04-10 15:06:00,
2013-04-10 11:56:00,83.7,56.8,30.00,WNW,290,5.0,8.0,40,0.00,,,0.00,886,Wunderground v.1.15,2013-04-10 15:56:00,
2013-04-10 12:06:00,84.5,57.5,30.00,NNW,328,4.0,9.0,40,0.00,,,0.00,902,Wunderground v.1.15,2013-04-10 16:06:00,
2013-04-10 12:16:00,85.6,57.1,30.00,NW,319,4.0,8.0,38,0.00,,,0.00,916,Wunderground v.1.15,2013-04-10 16:16:00,
2013-04-10 12:26:00,86.0,55.9,29.99,West,277,4.0,19.0,36,0.00,,,0.00,947,Wunderground v.1.15,2013-04-10 16:26:00,
2013-04-10 12:36:00,86.2,56.1,29.99,NW,313,7.0,8.0,36,0.00,,,0.00,963,Wunderground v.1.15,2013-04-10 16:36:00,
2013-04-10 12:41:00,86.2,55.3,29.98,NW,311,7.0,7.0,35,0.00,,,0.00,958,Wunderground v.1.15,2013-04-10 16:41:00,
2013-04-10 12:51:00,86.7,56.6,29.97,NNE,30,6.0,6.0,36,0.00,,,0.00,1002,Wunderground v.1.15,2013-04-10 16:51:00,
2013-04-10 12:56:00,87.1,56.1,29.97,WSW,257,6.0,9.0,35,0.00,,,0.00,1007,Wunderground v.1.15,2013-04-10 16:56:00,
2013-04-10 13:35:00,87.7,57.4,29.95,WNW,301,5.0,8.0,36,0.00,,,0.00,911,Wunderground v.1.15,2013-04-10 17:35:00,
2013-04-10 13:40:00,88.0,57.7,29.95,WNW,283,6.0,8.0,36,0.00,,,0.00,919,Wunderground v.1.15,2013-04-10 17:40:00,
2013-04-10 13:50:00,88.6,57.4,29.95,WNW,283,6.0,8.0,35,0.00,,,0.00,907,Wunderground v.1.15,2013-04-10 17:50:00,
2013-04-10 14:00:00,88.2,57.9,29.95,West,273,7.0,7.0,36,0.00,,,0.00,888,Wunderground v.1.15,2013-04-10 18:00:00,
2013-04-10 14:05:00,88.7,57.5,29.94,SW,232,5.0,8.0,35,0.00,,,0.00,888,Wunderground v.1.15,2013-04-10 18:05:00,
2013-04-10 14:10:00,88.5,57.4,29.94,SW,217,3.0,8.0,35,0.00,,,0.00,886,Wunderground v.1.15,2013-04-10 18:10:00,
2013-04-10 14:15:00,88.4,57.3,29.93,SSE,155,4.0,8.0,35,0.00,,,0.00,874,Wunderground v.1.15,2013-04-10 18:15:00,
2013-04-10 14:25:00,89.0,57.0,29.93,SW,223,6.0,9.0,34,0.00,,,0.00,867,Wunderground v.1.15,2013-04-10 18:25:00,
2013-04-10 14:35:00,89.5,56.6,29.92,West,270,7.0,7.0,33,0.00,,,0.00,842,Wunderground v.1.15,2013-04-10 18:35:00,
2013-04-10 14:45:00,89.8,56.0,29.92,SW,218,7.0,8.0,32,0.00,,,0.00,824,Wunderground v.1.15,2013-04-10 18:45:00,
2013-04-10 14:55:00,90.6,55.8,29.92,NW,304,5.0,8.0,31,0.00,,,0.00,810,Wunderground v.1.15,2013-04-10 18:55:00,
2013-04-10 15:00:00,90.3,55.6,29.92,West,275,6.0,6.0,31,0.00,,,0.00,795,Wunderground v.1.15,2013-04-10 19:00:00,
2013-04-10 15:10:00,90.1,55.4,29.91,SW,215,8.0,8.0,31,0.00,,,0.00,773,Wunderground v.1.15,2013-04-10 19:10:00,
2013-04-10 15:20:00,89.9,56.1,29.91,WSW,239,8.0,8.0,32,0.00,,,0.00,756,Wunderground v.1.15,2013-04-10 19:20:00,
2013-04-10 15:25:00,90.3,56.4,29.90,WSW,243,8.0,8.0,32,0.00,,,0.00,737,Wunderground v.1.15,2013-04-10 19:25:00,
2013-04-10 15:30:00,90.6,55.8,29.90,WSW,253,7.0,7.0,31,0.00,,,0.00,722,Wunderground v.1.15,2013-04-10 19:30:00,
2013-04-10 15:35:00,90.6,55.8,29.90,WNW,298,8.0,8.0,31,0.00,,,0.00,714,Wunderground v.1.15,2013-04-10 19:35:00,
2013-04-10 15:45:00,90.7,55.9,29.89,West,259,6.0,8.0,31,0.00,,,0.00,687,Wunderground v.1.15,2013-04-10 19:45:00,
2013-04-10 15:50:00,91.0,56.2,29.89,WSW,250,7.0,8.0,31,0.00,,,0.00,666,Wunderground v.1.15,2013-04-10 19:50:00,
2013-04-10 15:55:00,91.3,55.5,29.89,West,277,7.0,8.0,30,0.00,,,0.00,657,Wunderground v.1.15,2013-04-10 19:55:00,
2013-04-10 16:00:00,91.5,55.7,29.88,West,273,7.0,11.0,30,0.00,,,0.00,640,Wunderground v.1.15,2013-04-10 20:00:00,
2013-04-10 16:05:00,91.3,56.4,29.88,WNW,284,7.0,11.0,31,0.00,,,0.00,636,Wunderground v.1.15,2013-04-10 20:05:00,
2013-04-10 16:10:00,90.9,55.2,29.88,West,281,8.0,8.0,30,0.00,,,0.00,622,Wunderground v.1.15,2013-04-10 20:10:00,
2013-04-10 16:15:00,90.9,56.1,29.88,SW,232,9.0,9.0,31,0.00,,,0.00,598,Wunderground v.1.15,2013-04-10 20:15:00,
2013-04-10 16:20:00,90.9,56.1,29.87,SW,227,7.0,7.0,31,0.00,,,0.00,587,Wunderground v.1.15,2013-04-10 20:20:00,
2013-04-10 16:30:00,91.4,55.6,29.87,WNW,286,6.0,6.0,30,0.00,,,0.00,554,Wunderground v.1.15,2013-04-10 20:30:00,
2013-04-10 16:35:00,91.5,55.7,29.87,WSW,252,6.0,12.0,30,0.00,,,0.00,538,Wunderground v.1.15,2013-04-10 20:35:00,
2013-04-10 16:45:00,91.1,56.3,29.87,WSW,240,9.0,11.0,31,0.00,,,0.00,499,Wunderground v.1.15,2013-04-10 20:45:00,
2013-04-10 16:50:00,90.9,56.1,29.86,SW,229,9.0,9.0,31,0.00,,,0.00,487,Wunderground v.1.15,2013-04-10 20:50:00,
2013-04-10 16:55:00,91.1,55.3,29.86,WNW,284,8.0,9.0,30,0.00,,,0.00,471,Wunderground v.1.15,2013-04-10 20:55:00,
2013-04-10 17:05:00,91.2,55.4,29.86,WNW,293,7.0,8.0,30,0.00,,,0.00,436,Wunderground v.1.15,2013-04-10 21:05:00,
2013-04-10 17:10:00,91.1,55.3,29.85,WNW,294,8.0,8.0,30,0.00,,,0.00,427,Wunderground v.1.15,2013-04-10 21:10:00,
2013-04-10 17:15:00,91.2,56.3,29.85,WNW,286,8.0,12.0,31,0.00,,,0.00,397,Wunderground v.1.15,2013-04-10 21:15:00,
2013-04-10 17:20:00,90.8,56.0,29.85,SW,229,8.0,8.0,31,0.00,,,0.00,380,Wunderground v.1.15,2013-04-10 21:20:00,
2013-04-10 17:30:00,90.9,56.1,29.85,North,355,8.0,8.0,31,0.00,,,0.00,348,Wunderground v.1.15,2013-04-10 21:30:00,
2013-04-10 17:35:00,91.0,55.3,29.85,West,279,9.0,9.0,30,0.00,,,0.00,329,Wunderground v.1.15,2013-04-10 21:35:00,
2013-04-10 17:45:00,91.2,54.5,29.85,West,275,8.0,14.0,29,0.00,,,0.00,304,Wunderground v.1.15,2013-04-10 21:45:00,
2013-04-10 17:50:00,90.9,55.2,29.84,West,268,8.0,8.0,30,0.00,,,0.00,279,Wunderground v.1.15,2013-04-10 21:50:00,
2013-04-10 17:55:00,91.1,55.3,29.85,WSW,248,8.0,14.0,30,0.00,,,0.00,260,Wunderground v.1.15,2013-04-10 21:55:00,
2013-04-10 18:05:00,90.5,54.8,29.84,WSW,255,8.0,9.0,30,0.00,,,0.00,227,Wunderground v.1.15,2013-04-10 22:05:00,
2013-04-10 18:10:00,90.4,54.7,29.84,SW,214,8.0,8.0,30,0.00,,,0.00,207,Wunderground v.1.15,2013-04-10 22:10:00,
2013-04-10 18:15:00,90.1,54.5,29.84,West,260,8.0,9.0,30,0.00,,,0.00,185,Wunderground v.1.15,2013-04-10 22:15:00,
2013-04-10 18:20:00,90.0,55.3,29.84,West,263,8.0,9.0,31,0.00,,,0.00,167,Wunderground v.1.15,2013-04-10 22:20:00,
2013-04-10 18:25:00,90.1,55.4,29.84,SW,232,7.0,9.0,31,0.00,,,0.00,144,Wunderground v.1.15,2013-04-10 22:25:00,
2013-04-10 18:30:00,89.9,54.3,29.84,WNW,286,7.0,9.0,30,0.00,,,0.00,100,Wunderground v.1.15,2013-04-10 22:30:00,
2013-04-10 18:35:00,89.6,54.1,29.84,West,278,9.0,10.0,30,0.00,,,0.00,62,Wunderground v.1.15,2013-04-10 22:35:00,
2013-04-10 18:45:00,89.4,53.9,29.84,West,265,9.0,9.0,30,0.00,,,0.00,53,Wunderground v.1.15,2013-04-10 22:45:00,
2013-04-10 18:55:00,89.1,54.5,29.83,WSW,249,9.0,9.0,31,0.00,,,0.00,42,Wunderground v.1.15,2013-04-10 22:55:00,
2013-04-10 19:05:00,88.7,55.9,29.83,West,275,7.0,8.0,33,0.00,,,0.00,33,Wunderground v.1.15,2013-04-10 23:05:00,
2013-04-10 19:11:00,88.4,55.6,29.83,WNW,291,6.0,6.0,33,0.00,,,0.00,28,Wunderground v.1.15,2013-04-10 23:11:00,
2013-04-10 19:16:00,88.1,56.2,29.83,West,281,6.0,8.0,34,0.00,,,0.00,23,Wunderground v.1.15,2013-04-10 23:16:00,
2013-04-10 19:21:00,87.9,56.0,29.84,West,263,7.0,7.0,34,0.00,,,0.00,16,Wunderground v.1.15,2013-04-10 23:21:00,
2013-04-10 19:26:00,87.6,56.6,29.84,WNW,290,7.0,8.0,35,0.00,,,0.00,11,Wunderground v.1.15,2013-04-10 23:26:00,
2013-04-10 19:31:00,87.3,56.3,29.84,WSW,257,6.0,8.0,35,0.00,,,0.00,9,Wunderground v.1.15,2013-04-10 23:31:00,
2013-04-10 19:40:00,86.8,56.6,29.84,WNW,291,7.0,7.0,36,0.00,,,0.00,0,Wunderground v.1.15,2013-04-10 23:40:00,
2013-04-10 19:45:00,86.6,56.5,29.84,WNW,288,7.0,8.0,36,0.00,,,0.00,0,Wunderground v.1.15,2013-04-10 23:45:00,
2013-04-10 19:50:00,86.3,57.0,29.84,West,274,6.0,6.0,37,0.00,,,0.00,0,Wunderground v.1.15,2013-04-10 23:50:00,
2013-04-10 19:55:00,86.0,56.7,29.85,West,275,5.0,8.0,37,0.00,,,0.00,0,Wunderground v.1.15,2013-04-10 23:55:00,
2013-04-10 20:05:00,85.5,56.3,29.85,West,277,6.0,11.0,37,0.00,,,0.00,0,Wunderground v.1.15,2013-04-11 00:05:00,
2013-04-10 20:10:00,85.2,56.0,29.84,West,274,6.0,6.0,37,0.00,,,0.00,0,Wunderground v.1.15,2013-04-11 00:10:00,
2013-04-10 20:15:00,85.0,55.8,29.84,WSW,257,6.0,8.0,37,0.00,,,0.00,0,Wunderground v.1.15,2013-04-11 00:15:00,
2013-04-10 20:20:00,84.8,55.6,29.84,West,277,7.0,7.0,37,0.00,,,0.00,0,Wunderground v.1.15,2013-04-11 00:20:00,
2013-04-10 20:25:00,84.6,56.2,29.84,West,268,8.0,9.0,38,0.00,,,0.00,0,Wunderground v.1.15,2013-04-11 00:25:00,
2013-04-10 20:30:00,84.3,55.9,29.84,SSW,202,8.0,8.0,38,0.00,,,0.00,0,Wunderground v.1.15,2013-04-11 00:30:00,
2013-04-10 20:35:00,84.1,55.7,29.84,West,264,7.0,8.0,38,0.00,,,0.00,0,Wunderground v.1.15,2013-04-11 00:35:00,
2013-04-10 20:41:00,84.0,55.7,29.84,West,265,8.0,10.0,38,0.00,,,0.00,0,Wunderground v.1.15,2013-04-11 00:41:00,
2013-04-10 20:51:00,83.7,56.1,29.85,West,273,6.0,6.0,39,0.00,,,0.00,0,Wunderground v.1.15,2013-04-11 00:51:00,
2013-04-10 20:56:00,83.5,55.9,29.85,West,279,6.0,8.0,39,0.00,,,0.00,0,Wunderground v.1.15,2013-04-11 00:56:00,
2013-04-10 21:01:00,83.3,55.8,29.85,West,265,5.0,8.0,39,0.00,,,0.00,0,Wunderground v.1.15,2013-04-11 01:01:00,
2013-04-10 21:10:00,82.9,56.1,29.86,West,265,6.0,6.0,40,0.00,,,0.00,0,Wunderground v.1.15,2013-04-11 01:10:00,
2013-04-10 21:15:00,82.8,56.0,29.86,WNW,283,6.0,8.0,40,0.00,,,0.00,0,Wunderground v.1.15,2013-04-11 01:15:00,
2013-04-10 21:20:00,82.5,55.7,29.86,WNW,284,4.0,8.0,40,0.00,,,0.00,0,Wunderground v.1.15,2013-04-11 01:20:00,
2013-04-10 21:30:00,82.3,56.2,29.86,WNW,294,6.0,9.0,41,0.00,,,0.00,0,Wunderground v.1.15,2013-04-11 01:30:00,
2013-04-10 21:41:00,81.9,55.9,29.87,West,267,7.0,8.0,41,0.00,,,0.00,0,Wunderground v.1.15,2013-04-11 01:41:00,
2013-04-10 21:46:00,81.8,55.8,29.87,WNW,293,7.0,14.0,41,0.00,,,0.00,0,Wunderground v.1.15,2013-04-11 01:46:00,
2013-04-10 21:51:00,81.6,56.3,29.87,NNW,344,8.0,8.0,42,0.00,,,0.00,0,Wunderground v.1.15,2013-04-11 01:51:00,
2013-04-10 22:01:00,81.4,56.1,29.87,West,263,7.0,10.0,42,0.00,,,0.00,0,Wunderground v.1.15,2013-04-11 02:01:00,
2013-04-10 22:16:00,80.8,56.2,29.87,NW,308,6.0,8.0,43,0.00,,,0.00,0,Wunderground v.1.15,2013-04-11 02:16:00,
2013-04-10 22:26:00,80.5,55.9,29.87,WNW,288,6.0,13.0,43,0.00,,,0.00,0,Wunderground v.1.15,2013-04-11 02:26:00,
2013-04-10 22:36:00,80.2,56.3,29.87,NNW,329,6.0,8.0,44,0.00,,,0.00,0,Wunderground v.1.15,2013-04-11 02:36:00,
2013-04-10 22:41:00,80.0,56.1,29.87,NW,310,7.0,7.0,44,0.00,,,0.00,0,Wunderground v.1.15,2013-04-11 02:41:00,
2013-04-10 22:50:00,79.6,56.4,29.87,West,280,6.0,6.0,45,0.00,,,0.00,0,Wunderground v.1.15,2013-04-11 02:50:00,
2013-04-10 22:55:00,79.5,56.3,29.87,WSW,250,6.0,8.0,45,0.00,,,0.00,0,Wunderground v.1.15,2013-04-11 02:55:00,
2013-04-10 23:00:00,79.5,56.3,29.87,WSW,257,6.0,6.0,45,0.00,,,0.00,0,Wunderground v.1.15,2013-04-11 03:00:00,
2013-04-10 23:05:00,79.4,56.2,29.87,West,259,5.0,8.0,45,0.00,,,0.00,0,Wunderground v.1.15,2013-04-11 03:05:00,
2013-04-10 23:10:00,79.3,56.1,29.88,West,266,5.0,5.0,45,0.00,,,0.00,0,Wunderground v.1.15,2013-04-11 03:10:00,
2013-04-10 23:21:00,79.0,56.5,29.88,West,267,6.0,6.0,46,0.00,,,0.00,0,Wunderground v.1.15,2013-04-11 03:21:00,
2013-04-10 23:26:00,78.9,56.4,29.88,West,271,6.0,7.0,46,0.00,,,0.00,0,Wunderground v.1.15,2013-04-11 03:26:00,
2013-04-10 23:36:00,78.5,56.0,29.88,WNW,286,5.0,8.0,46,0.00,,,0.00,0,Wunderground v.1.15,2013-04-11 03:36:00,
2013-04-10 23:46:00,78.2,56.3,29.88,WNW,302,4.0,8.0,47,0.00,,,0.00,0,Wunderground v.1.15,2013-04-11 03:46:00,
2013-04-10 23:56:00,77.9,56.6,29.88,West,269,2.0,8.0,48,0.00,,,0.00,0,Wunderground v.1.15,2013-04-11 03:56:00,